This is the latest recevied weather packets stored in our database for station/object K1BES. If no packets are shown the sender has not sent any weather packets the latest 10 day(s).
| Time | Temp. | Humidity | Pressure | Rain* | Wind** | Luminosity | Snow |
|---|---|---|---|---|---|---|---|
| 1787696629 | 31.11° C | 69% | 1017.4 hPa | 0 mm | - | 62 W/m² | - |
| 1787696324 | 30.56° C | 71% | 1017.5 hPa | 0 mm | - | 55 W/m² | - |
| 1787696019 | 30.56° C | 71% | 1017.3 hPa | 0 mm | - | 51 W/m² | - |
| 1787695719 | 30.56° C | 70% | 1017.3 hPa | 0 mm | - | 47 W/m² | - |
| 1787695416 | 30.56° C | 70% | 1017.3 hPa | 0 mm | - | 43 W/m² | - |
| 1787695116 | 31.11° C | 71% | 1017.4 hPa | 0 mm | - | 43 W/m² | - |
| 1787694814 | 31.11° C | 70% | 1017.2 hPa | 0 mm | - | 53 W/m² | - |
| 1787694511 | 31.11° C | 70% | 1017.6 hPa | 0 mm | - | 57 W/m² | - |
| 1787694210 | 31.11° C | 69% | 1017.4 hPa | 0 mm | - | 60 W/m² | - |
| 1787693906 | 31.11° C | 67% | 1017.5 hPa | 0 mm | - | 61 W/m² | - |
| 1787693602 | 31.11° C | 68% | 1017.4 hPa | 0 mm | - | 62 W/m² | - |
| 1787693298 | 31.67° C | 68% | 1017.5 hPa | 0 mm | - | 62 W/m² | - |
| 1787692993 | 32.22° C | 68% | 1017.4 hPa | 0 mm | - | 72 W/m² | - |
| 1787692689 | 32.22° C | 68% | 1017.4 hPa | 0 mm | - | 78 W/m² | - |
| 1787692384 | 32.22° C | 66% | 1017.4 hPa | 0 mm | - | 79 W/m² | - |
| 1787692084 | 32.22° C | 68% | 1017.3 hPa | 0 mm | - | 81 W/m² | - |
| 1787691783 | 32.22° C | 69% | 1017.7 hPa | 0 mm | - | 82 W/m² | - |
| 1787691482 | 32.22° C | 67% | 1017.6 hPa | 0 mm | - | 81 W/m² | - |
| 1787691182 | 32.22° C | 66% | 1017.7 hPa | 0 mm | - | 81 W/m² | - |
| 1787690877 | 32.22° C | 68% | 1017.4 hPa | 0 mm | - | 83 W/m² | - |
| 1787690576 | 32.22° C | 68% | 1017.4 hPa | 0 mm | - | 89 W/m² | - |
| 1787690272 | 32.22° C | 67% | 1017.6 hPa | 0 mm | - | 95 W/m² | - |
| 1787689969 | 32.78° C | 66% | 1017.5 hPa | 0 mm | - | 103 W/m² | - |
| 1787689664 | 32.78° C | 66% | 1017.5 hPa | 0 mm | - | 108 W/m² | - |
| 1787689359 | 32.78° C | 66% | 1017.7 hPa | 0 mm | - | 107 W/m² | - |
* Rain latest hour (hover to see other rain measurements)
** Current wind speed in m/s (hover to see current wind gust speed)